DW0345 Weather Reports


Display with metric or nautical units.
time (UTC)temp
F
wind
direction
speed
MPH
gust
MPH
rain 1hr
in
rain 24hr
in
rain mn
in
humidity
%
barometer
mb
20260504070252 55 272 0.0 2.0 0.00 0.00 0.00 76
20260504060235 57 310 3.0 5.0 0.00 0.00 0.00 75
20260504050751 58 245 3.0 7.0 0.00 0.00 0.00 73
20260504050226 58 249 4.0 7.0 0.00 0.00 0.00 73
20260504045808 58 233 3.0 6.0 0.00 0.00 0.00 72
20260504045228 58 232 3.0 4.0 0.00 0.00 0.00 72
20260504044730 58 263 0.0 4.0 0.00 0.00 0.00 72
20260504044245 58 241 1.0 4.0 0.00 0.00 0.00 72
20260504043728 58 258 0.0 3.0 0.00 0.00 0.00 71
20260504043253 58 262 1.0 4.0 0.00 0.00 0.00 71
20260504042732 58 251 2.0 4.0 0.00 0.00 0.00 71
20260504042233 58 195 2.0 3.0 0.00 0.00 0.00 71
20260504041735 58 300 0.0 2.0 0.00 0.00 0.00 71
20260504041233 58 243 1.0 2.0 0.00 0.00 0.00 71
20260504040734 58 231 1.0 2.0 0.00 0.00 0.00 71
20260504040310 58 276 1.0 5.0 0.00 0.00 0.00 71
20260504035733 58 133 3.0 5.0 0.00 0.00 0.00 71
20260504035233 58 56 1.0 3.0 0.00 0.00 0.00 72
20260504034733 58 280 0.0 2.0 0.00 0.00 0.00 72
20260504034230 58 280 1.0 4.0 0.00 0.00 0.00 72
20260504033730 58 289 0.0 7.0 0.00 0.00 0.00 71
20260504033230 58 266 2.0 8.0 0.00 0.00 0.00 71
20260504032750 58 241 4.0 7.0 0.00 0.00 0.00 71
20260504032232 58 242 3.0 7.0 0.00 0.00 0.00 70
20260504031754 58 222 2.0 5.0 0.00 0.00 0.00 69
20260504031229 58 302 2.0 8.0 0.00 0.00 0.00 69
20260504030727 59 310 1.0 10.0 0.00 0.00 0.00 69
20260504030303 59 301 5.0 10.0 0.00 0.00 0.00 68
20260504025745 59 251 2.0 10.0 0.00 0.00 0.00 68
20260504025247 59 258 3.0 7.0 0.00 0.00 0.00 67
20260504024729 59 286 2.0 6.0 0.00 0.00 0.00 67
20260504024250 60 258 2.0 8.0 0.00 0.00 0.00 67
20260504023730 60 251 3.0 8.0 0.00 0.00 0.00 66
20260504023232 60 288 4.0 8.0 0.00 0.00 0.00 65
20260504022733 60 231 2.0 6.0 0.00 0.00 0.00 64
20260504022245 61 301 3.0 8.0 0.00 0.00 0.00 63
20260504021729 61 262 3.0 8.0 0.00 0.00 0.00 63
20260504021229 62 301 1.0 9.0 0.00 0.00 0.00 62
20260504020732 62 222 4.0 7.0 0.00 0.00 0.00 62
20260504020244 62 266 3.0 9.0 0.00 0.00 0.00 62
20260504015746 63 231 3.0 9.0 0.00 0.00 0.00 61
20260504015229 63 277 2.0 8.0 0.00 0.00 0.00 61
20260504014729 63 249 1.0 10.0 0.00 0.00 0.00 60
20260504014250 63 259 6.0 10.0 0.00 0.00 0.00 58
20260504013748 63 226 5.0 9.0 0.00 0.00 0.00 57
20260504013245 64 249 2.0 7.0 0.00 0.00 0.00 59
20260504012747 64 228 5.0 7.0 0.00 0.00 0.00 59
20260504012233 64 241 1.0 4.0 0.00 0.00 0.00 58
20260504011732 64 228 2.0 7.0 0.00 0.00 0.00 55
20260504011312 64 202 2.0 7.0 0.00 0.00 0.00 55
20260504010732 64 224 2.0 4.0 0.00 0.00 0.00 55
20260504010245 65 172 2.0 5.0 0.00 0.00 0.00 55
20260504005727 65 197 1.0 5.0 0.00 0.00 0.00 55
20260504005232 65 224 1.0 4.0 0.00 0.00 0.00 55
20260504004734 65 204 1.0 7.0 0.00 0.00 0.00 55
20260504004305 65 193 1.0 7.0 0.00 0.00 0.00 55
20260504003725 65 211 2.0 5.0 0.00 0.00 0.00 55
20260504003245 65 168 3.0 5.0 0.00 0.00 0.00 55
20260504002727 65 221 1.0 7.0 0.00 0.00 0.00 55
20260504002243 65 125 4.0 7.0 0.00 0.00 0.00 55
20260504001747 65 152 2.0 5.0 0.00 0.00 0.00 54
20260504001231 65 231 2.0 4.0 0.00 0.00 0.00 55
20260504000732 65 225 1.0 7.0 0.00 0.00 0.00 55
20260504000236 65 189 3.0 7.0 0.00 0.00 0.00 55
20260503235737 66 95 3.0 5.0 0.00 0.00 0.00 54
20260503235242 66 185 1.0 4.0 0.00 0.00 0.00 54
20260503234743 66 199 2.0 9.0 0.00 0.00 0.00 54
20260503234228 66 188 5.0 9.0 0.00 0.00 0.00 54
20260503233728 66 79 1.0 8.0 0.00 0.00 0.00 54
20260503233239 66 102 3.0 9.0 0.00 0.00 0.00 55
20260503232742 66 175 6.0 9.0 0.00 0.00 0.00 54
20260503232247 66 119 1.0 5.0 0.00 0.00 0.00 54
20260503231731 66 324 2.0 4.0 0.00 0.00 0.00 55
20260503231243 66 119 3.0 4.0 0.00 0.00 0.00 54
20260503230746 66 243 3.0 8.0 0.00 0.00 0.00 55
20260503230230 66 217 4.0 8.0 0.00 0.00 0.00 55
20260503225750 65 91 2.0 6.0 0.00 0.00 0.00 56
20260503225252 65 190 3.0 6.0 0.00 0.00 0.00 56
20260503224727 64 204 2.0 5.0 0.00 0.00 0.00 56
20260503224231 65 207 1.0 6.0 0.00 0.00 0.00 57
20260503223732 64 204 1.0 6.0 0.00 0.00 0.00 57
20260503223243 64 237 2.0 6.0 0.00 0.00 0.00 57
20260503222746 64 241 2.0 9.0 0.00 0.00 0.00 57
20260503222226 65 224 2.0 8.0 0.00 0.00 0.00 57
20260503221728 65 122 3.0 7.0 0.00 0.00 0.00 58
20260503221247 64 250 1.0 8.0 0.00 0.00 0.00 58
20260503220747 65 209 4.0 8.0 0.00 0.00 0.00 57
20260503220233 64 237 1.0 9.0 0.00 0.00 0.00 58
20260503215734 64 126 3.0 9.0 0.00 0.00 0.00 58
20260503215234 65 141 2.0 3.0 0.00 0.00 0.00 58
20260503214734 65 104 1.0 3.0 0.00 0.00 0.00 58
20260503214246 65 133 1.0 4.0 0.00 0.00 0.00 58
20260503213807 65 152 1.0 5.0 0.00 0.00 0.00 58
20260503213231 65 220 1.0 4.0 0.00 0.00 0.00 58
20260503212733 65 198 2.0 5.0 0.00 0.00 0.00 59
20260503212243 64 210 1.0 5.0 0.00 0.00 0.00 60
20260503211727 64 267 3.0 6.0 0.00 0.00 0.00 60
20260503211229 64 196 3.0 6.0 0.00 0.00 0.00 60
20260503210732 64 126 2.0 5.0 0.00 0.00 0.00 60
20260503210240 64 122 1.0 5.0 0.00 0.00 0.00 61
20260503205745 64 102 2.0 6.0 0.00 0.00 0.00 61
20260503205226 64 173 2.0 7.0 0.00 0.00 0.00 61
20260503204728 64 229 2.0 7.0 0.00 0.00 0.00 61
20260503204233 64 236 3.0 8.0 0.00 0.00 0.00 61
20260503203733 64 199 3.0 8.0 0.00 0.00 0.00 62
20260503203234 64 244 2.0 8.0 0.00 0.00 0.00 62
20260503202735 64 183 2.0 5.0 0.00 0.00 0.00 63
20260503202226 63 255 2.0 4.0 0.00 0.00 0.00 63
20260503201746 63 158 0.0 3.0 0.00 0.00 0.00 64
20260503201227 63 217 1.0 6.0 0.00 0.00 0.00 64
20260503200729 63 237 3.0 6.0 0.00 0.00 0.00 64
20260503200228 63 308 2.0 5.0 0.00 0.00 0.00 65
20260503195728 63 107 2.0 6.0 0.00 0.00 0.00 65
20260503195246 63 114 4.0 6.0 0.00 0.00 0.00 64
20260503194747 64 139 3.0 4.0 0.00 0.00 0.00 64
20260503194227 64 160 0.0 3.0 0.00 0.00 0.00 65
20260503193729 64 303 1.0 3.0 0.00 0.00 0.00 65
20260503193232 63 275 1.0 3.0 0.00 0.00 0.00 66
20260503192732 63 309 1.0 3.0 0.00 0.00 0.00 67
20260503192232 62 300 1.0 2.0 0.00 0.00 0.00 67
20260503191734 62 191 0.0 4.0 0.00 0.00 0.00 67
20260503191233 62 127 2.0 4.0 0.00 0.00 0.00 67
20260503190734 62 157 1.0 4.0 0.00 0.00 0.00 68
20260503190249 62 137 2.0 4.0 0.00 0.00 0.00 68
20260503185750 62 183 0.0 5.0 0.00 0.00 0.00 69
20260503185228 62 241 1.0 5.0 0.00 0.00 0.00 70
20260503184731 62 167 1.0 4.0 0.00 0.00 0.00 71
20260503184257 61 81 2.0 5.0 0.00 0.00 0.00 71
20260503183736 61 212 1.0 5.0 0.00 0.00 0.00 73
20260503183234 61 221 1.0 4.0 0.00 0.00 0.00 75
20260503182754 60 287 1.0 3.0 0.00 0.00 0.00 77
20260503182306 60 4 1.0 4.0 0.00 0.00 0.00 78
20260503181746 59 213 1.0 4.0 0.00 0.00 0.00 79
20260503181248 59 206 0.0 3.0 0.00 0.00 0.00 81
20260503180731 58 135 0.0 4.0 0.00 0.00 0.00 83
20260503180244 57 217 1.0 4.0 0.00 0.00 0.00 83
20260503175745 57 183 1.0 4.0 0.00 0.00 0.00 84
20260503175229 57 241 1.0 4.0 0.00 0.00 0.00 84
20260503174731 57 241 2.0 5.0 0.00 0.00 0.00 85
20260503173733 57 253 2.0 7.0 0.00 0.00 0.00 85
20260503173231 57 243 3.0 7.0 0.00 0.00 0.00 85
20260503172752 57 240 3.0 6.0 0.00 0.00 0.00 85
20260503172227 57 255 2.0 6.0 0.00 0.00 0.00 85
20260503171728 57 256 1.0 5.0 0.00 0.00 0.00 85
20260503171231 57 291 2.0 5.0 0.00 0.00 0.00 85
20260503170733 57 260 2.0 6.0 0.00 0.00 0.00 85
20260503170230 57 235 2.0 6.0 0.00 0.00 0.00 85
20260503150732 58 158 2.0 5.0 0.00 0.00 0.00 81
20260503150235 58 110 2.0 7.0 0.00 0.00 0.00 80
20260503140226 58 107 3.0 6.0 0.00 0.00 0.00 77
20260503131247 58 197 1.0 3.0 0.00 0.00 0.00 77
20260503130810 58 156 0.0 3.0 0.00 0.00 0.00 77
20260503130250 58 153 1.0 3.0 0.00 0.00 0.00 77
20260503110805 57 159 3.0 6.0 0.00 0.00 0.00 80
20260503110228 57 77 3.0 5.0 0.00 0.00 0.00 80
20260503100226 58 99 2.0 5.0 0.00 0.00 0.00 82
20260503090241 58 112 4.0 6.0 0.00 0.00 0.00 82
20260503081229 59 78 4.0 7.0 0.00 0.00 0.00 83
20260503080750 59 67 1.0 5.0 0.00 0.00 0.00 83
20260503080227 59 156 3.0 6.0 0.00 0.00 0.00 83